x

Port Washington, Wi (pwaw3) Weather Station

1:40pm - Thu 27th Nov 2014 All times are CST. -6 hours from GMT.

  • Wind
    8mph, 15mph gusts
  • Air Temp 21°f
  • Sea Pressure 1028.1mb
  • Port Washington, Wi
  • Port Washington, Wi

More Historic Weather Station data

Upgrade to MSW Pro to gain access to the past 30 days of data for over 8000 Wavebouys and Weather Stations around the globe.

Join Pro

Comparision Forecast

View Surf forecast
   
Thu 11/27 1:40pm 8 15 mph 1028.1mb 21f
1:30pm 8 17 mph 1028.1mb 21f
1:20pm 10 16 mph 1028.1mb 21f
1:10pm 6 17 mph 1028.1mb 21f
1:00pm 10 15 mph 1028.1mb 21f
12:40pm 10 16 mph 1028.1mb 21f
12:30pm 13 16 mph 1028.1mb 21f
12:20pm 11 20 mph 1028.1mb 22f
12:10pm 7 14 mph 1028.1mb 22f
12:00pm 9 15 mph 1028.1mb 22f
11:40am 6 13 mph 1028.1mb 22f
11:30am 8 15 mph 1028.1mb 22f
11:20am 9 17 mph 1028.1mb 22f
11:10am 8 11 mph 1028.1mb 23f
11:00am 7 14 mph 1028.1mb 23f
10:40am 10 16 mph 1028.1mb 23f
10:30am 6 17 mph 1028.1mb 23f
10:20am 8 16 mph 1027.8mb 23f
10:10am 9 18 mph 1028.1mb 23f
10:00am 8 15 mph 1027.8mb 22f
9:40am 7 14 mph 1027.4mb 24f
9:30am 8 15 mph 1027.4mb 24f
9:20am 8 15 mph 1027.1mb 24f
9:10am 9 15 mph 1027.1mb 24f
9:00am 9 14 mph 1027.1mb 24f
8:40am 7 13 mph 1026.8mb 25f
8:30am 7 18 mph 1026.8mb 24f
8:20am 9 11 mph 1026.4mb 24f
8:10am 9 14 mph 1026.4mb 23f
8:00am 9 11 mph 1026.1mb 23f
7:40am 8 11 mph 1026.1mb 22f
7:30am 7 13 mph 1025.7mb 23f
7:20am 7 13 mph 1025.7mb 23f
7:10am 9 13 mph 1025.4mb 23f
7:00am 7 13 mph 1025.4mb 23f
6:40am 6 11 mph 1025.4mb 24f
6:30am 9 11 mph 1025.4mb 24f
6:20am 7 13 mph 1025.1mb 24f
6:10am 7 11 mph 1025.1mb 24f
6:00am 9 14 mph 1025.1mb 24f
5:40am 7 11 mph 1024.7mb 24f
5:30am 8 13 mph 1024.7mb 24f
5:20am 8 11 mph 1024.7mb 24f
5:10am 7 14 mph 1024.7mb 24f
5:00am 8 10 mph 1024.7mb 24f
4:40am 5 9 mph 1024.4mb 24f
4:30am 8 11 mph 1024.4mb 24f
4:20am 7 11 mph 1024.4mb 24f
4:10am 7 10 mph 1024.4mb 24f
4:00am 6 10 mph 1024.4mb 24f
3:40am 6 10 mph 1024mb 24f
3:30am 6 10 mph 1024mb 24f
3:20am 7 11 mph 1024mb 24f
3:10am 6 9 mph 1024.4mb 23f
3:00am 7 13 mph 1024.4mb 23f
2:40am 8 14 mph 1024mb 23f
2:30am 8 14 mph 1024mb 23f
2:20am 8 11 mph 1024mb 23f
2:10am 8 14 mph 1024mb 23f
2:00am 8 15 mph 1024mb 23f
1:40am 9 14 mph 1023.7mb 23f
1:30am 9 13 mph 1023.7mb 22f
1:20am 7 13 mph 1023.4mb 22f
1:10am 9 13 mph 1023.4mb 22f
1:00am 9 15 mph 1023.4mb 22f
12:40am 10 17 mph 1023.4mb 22f
12:30am 10 16 mph 1023.4mb 22f
12:20am 11 15 mph 1023.4mb 22f
12:10am 11 17 mph 1023.4mb 22f
12:00am 10 15 mph 1023.4mb 21f
Wed 11/26 11:40pm 13 17 mph 1023mb 21f
11:30pm 8 14 mph 1023mb 21f
11:20pm 13 17 mph 1023mb 21f
11:10pm 11 17 mph 1023mb 20f
11:00pm 11 17 mph 1023mb 20f
10:40pm 11 18 mph 1023mb 21f
10:30pm 11 20 mph 1023mb 21f
10:20pm 13 18 mph 1022.7mb 21f
10:10pm 13 18 mph 1022.7mb 21f
10:00pm 13 18 mph 1022.7mb 21f
9:40pm 10 16 mph 1022.7mb 22f
9:30pm 11 16 mph 1022.7mb 22f
9:20pm 9 14 mph 1022.4mb 22f
9:10pm 9 16 mph 1022.4mb 22f
9:00pm 9 17 mph 1022.4mb 22f
8:40pm 10 17 mph 1022.4mb 23f
8:30pm 11 14 mph 1022.4mb 23f
8:20pm 9 14 mph 1022.4mb 23f
8:10pm 9 18 mph 1022.4mb 24f
8:00pm 10 18 mph 1022mb 24f
7:40pm 10 16 mph 1022mb 24f
7:30pm 9 15 mph 1022mb 25f
7:20pm 9 14 mph 1022mb 25f
7:10pm 10 14 mph 1022mb 25f
7:00pm 10 16 mph 1022mb 26f
6:40pm 9 15 mph 1022mb 25f
6:30pm 8 13 mph 1022mb 25f
6:20pm 8 13 mph 1022mb 25f
6:10pm 7 11 mph 1022mb 25f
6:00pm 9 14 mph 1022.4mb 26f
5:40pm 7 10 mph 1022.4mb 26f
5:30pm 7 11 mph 1022mb 26f
5:20pm 5 9 mph 1022mb 26f
5:10pm 6 9 mph 1022mb 26f
5:00pm 7 11 mph 1022mb 27f
4:40pm 5 9 mph 1022mb 28f
4:30pm 5 8 mph 1022mb 28f
4:20pm 3 6 mph 1021.7mb 28f
4:10pm 3 6 mph 1021.7mb 29f
4:00pm 3 7 mph 1021.7mb 29f
3:40pm 5 7 mph 1021.3mb 29f
3:30pm 6 8 mph 1021.3mb 30f
3:20pm 6 8 mph 1021.3mb 30f
3:10pm 5 7 mph 1021.3mb 30f
3:00pm 5 8 mph 1021.3mb 31f
2:40pm 5 7 mph 1021mb 31f
2:30pm 5 8 mph 1021mb 30f
2:20pm 5 8 mph 1021mb 30f
2:10pm 5 8 mph 1021mb 31f
2:00pm 6 9 mph 1021mb 31f
1:50pm 6 7 mph 1021mb 30f
1:40pm 5 7 mph 1021mb 30f
1:30pm 3 5 mph 1021mb 30f
1:20pm 2 5 mph 1021mb 30f
1:10pm 5
mph
1021mb 30f
1:00pm 3 5 mph 1021.3mb 30f
12:50pm 3 6 mph 1021.3mb 30f
12:40pm 2 5 mph 1021.3mb 30f
12:30pm 3 5 mph 1021.3mb 29f
12:20pm 3 5 mph 1021.3mb 30f
12:10pm 2 5 mph 1021.3mb 30f
12:00pm 2 5 mph 1021.3mb 29f
11:50am 3
mph
1021.3mb 29f
11:40am 2 3 mph 1021.3mb 29f
11:30am 1 3 mph 1021.3mb 30f
11:20am 2 3 mph 1021.7mb 32f
11:10am  -  2 mph 1021.7mb 30f
11:00am 2 6 mph 1021.7mb 28f
10:50am 5 7 mph 1022mb 28f
10:40am 5 7 mph 1022mb 27f
10:30am 7 8 mph 1022mb 26f
10:20am 5 7 mph 1022.4mb 26f
10:10am 5 7 mph 1022.4mb 25f
10:00am 3 8 mph 1022.4mb 25f
9:50am 2 8 mph 1022.4mb 25f
9:40am 3 8 mph 1022.4mb 24f
9:30am 5 8 mph 1022.4mb 24f
9:20am 7 8 mph 1022.4mb 24f
9:10am 3 6 mph 1022.4mb 23f
9:00am 3 7 mph 1022.4mb 23f
8:50am 3 8 mph 1022.4mb 22f
8:40am 2 6 mph 1022mb 22f
8:30am 5 7 mph 1022mb 22f
8:20am 7 8 mph 1022mb 21f
8:10am 5 8 mph 1022mb 21f
8:00am 7 8 mph 1021.7mb 22f
7:50am 3 7 mph 1021.7mb 22f
7:40am 6 8 mph 1021.7mb 21f
7:30am 5 7 mph 1021.7mb 20f
7:20am 5 6 mph 1021.7mb 20f
7:10am 3 5 mph 1021.7mb 21f
7:00am 3 6 mph 1022mb 21f
6:50am 2 5 mph 1022mb 20f
6:40am 2 6 mph 1022mb 20f
6:30am 3 8 mph 1022mb 20f
6:20am 7 8 mph 1022mb 20f
6:10am 6 8 mph 1022mb 20f
6:00am 7 9 mph 1022mb 20f
5:50am 7 10 mph 1022mb 20f
5:40am 7 9 mph 1022mb 20f
5:30am 5 7 mph 1022mb 20f
5:20am 5
mph
1022mb 20f
5:10am 3 8 mph 1021.7mb 20f
5:00am 6 8 mph 1022mb 20f
4:50am 7 8 mph 1022mb 20f
4:40am 5 7 mph 1022mb 20f
4:30am 6 8 mph 1022mb 20f
4:20am 7 8 mph 1022mb 20f
4:10am 5 7 mph 1022.4mb 20f
4:00am 3 8 mph 1022.4mb 20f
3:50am 5 7 mph 1022.4mb 20f
3:40am 6
mph
1022.4mb 20f
3:30am 2 6 mph 1022.7mb 20f
3:20am 5 7 mph 1022.7mb 20f
3:10am 5 7 mph 1022.7mb 21f
3:00am 2 7 mph 1023mb 21f
2:50am 5 6 mph 1023mb 21f
2:40am 5 7 mph 1023mb 20f
2:30am 7 8 mph 1023mb 21f
2:20am 5 8 mph 1023mb 21f
2:10am 5 9 mph 1023mb 21f
2:00am 3 7 mph 1023.4mb 21f
1:50am 7 9 mph 1023mb 21f
1:40am 6 9 mph 1023mb 21f
1:30am 7 9 mph 1023mb 21f
1:20am 7 10 mph 1022.7mb 21f
1:10am 7 10 mph 1022.7mb 21f
1:00am 7 11 mph 1023mb 21f
12:50am 9 11 mph 1023mb 22f
12:40am 7 11 mph 1023mb 22f
12:30am 6 10 mph 1023mb 22f
12:20am 7 10 mph 1023mb 22f
12:10am 6 9 mph 1023mb 22f
12:00am 6 9 mph 1023mb 22f
Tue 11/25 11:50pm 7 9 mph 1023mb 22f
11:40pm 5 8 mph 1023mb 22f
11:30pm 5 7 mph 1023mb 22f
11:20pm 5 7 mph 1023mb 22f
11:10pm 5 7 mph 1022.7mb 22f
11:00pm 2 7 mph 1022.7mb 22f
10:50pm 3 7 mph 1022.4mb 22f
10:40pm 5 7 mph 1022.4mb 22f
10:30pm 5 8 mph 1022.4mb 22f
10:20pm 5 7 mph 1022.4mb 22f
10:10pm 3 7 mph 1022.4mb 23f
10:00pm 5 8 mph 1022.4mb 23f
9:50pm 6 8 mph 1022.4mb 23f
9:40pm 6 8 mph 1022.4mb 23f
9:30pm 3 9 mph 1022.4mb 23f
9:20pm 6 8 mph 1022.4mb 23f
9:10pm 3 6 mph 1022.4mb 23f
9:00pm 5 7 mph 1022.4mb 23f
8:50pm 3 8 mph 1022.4mb 23f
8:40pm 7 10 mph 1022.4mb 23f
8:30pm 7 10 mph 1022.4mb 23f
8:20pm 5 8 mph 1022mb 23f
8:10pm 5 7 mph 1022mb 23f
8:00pm 5 8 mph 1022mb 22f
7:50pm 8 10 mph 1022mb 23f
7:40pm 3 9 mph 1021.7mb 23f
7:30pm 6 9 mph 1021.7mb 23f
7:20pm 5 8 mph 1021.7mb 23f
7:10pm 5 8 mph 1021.7mb 23f
7:00pm 7 8 mph 1021.7mb 23f
6:50pm 6 9 mph 1021.3mb 23f
6:40pm 6 9 mph 1021.3mb 23f
6:30pm 5 10 mph 1021.3mb 23f
6:20pm 7 10 mph 1021.3mb 22f
6:10pm 6 10 mph 1021.3mb 22f
6:00pm 8 13 mph 1021.3mb 23f
5:50pm 5 13 mph 1021.3mb 23f
5:40pm 5 8 mph 1021mb 23f
5:30pm 6 8 mph 1021mb 23f
5:20pm 8 11 mph 1021.3mb 23f
5:10pm 6 10 mph 1021.3mb 23f
5:00pm 8 14 mph 1021.3mb 23f
4:50pm 8 11 mph 1021.3mb 23f
4:40pm 7 10 mph 1021.3mb 23f
4:30pm 6 14 mph 1021.3mb 23f
4:20pm 9 14 mph 1021.3mb 23f
4:10pm 8 13 mph 1021mb 23f
4:00pm 7 13 mph 1021mb 23f
3:50pm 8 13 mph 1021mb 23f
3:40pm 10 15 mph 1020.7mb 23f
3:30pm 9 15 mph 1020.7mb 24f
3:20pm 7 10 mph 1020.3mb 24f
3:10pm 8 13 mph 1020.3mb 24f
3:00pm 9 14 mph 1020.3mb 24f
2:50pm 7 10 mph 1020mb 24f
2:40pm 8 13 mph 1020mb 24f
2:30pm 9 13 mph 1019.6mb 24f
2:20pm 6 14 mph 1019.6mb 24f
2:10pm 11 17 mph 1019.3mb 24f
2:00pm 14 20 mph 1019mb 24f
1:50pm 7 11 mph 1018.6mb 24f
1:40pm 7 15 mph 1018.6mb 24f
1:30pm 7 15 mph 1018.6mb 24f
1:20pm 7 13 mph 1018.6mb 24f
1:10pm 7 13 mph 1018.6mb 25f
1:00pm 9 15 mph 1018.6mb 25f
12:50pm 8 16 mph 1018.3mb 25f
12:40pm 8 13 mph 1017.9mb 25f
12:30pm 10 14 mph 1017.9mb 25f
12:20pm 10 15 mph 1017.9mb 25f
12:10pm 10 16 mph 1017.9mb 25f
12:00pm 8 14 mph 1017.9mb 25f
11:50am 9 15 mph 1017.9mb 25f
11:40am 9 14 mph 1017.9mb 25f
11:30am 10 14 mph 1017.9mb 25f
11:20am 9 15 mph 1017.9mb 26f
11:10am 9 14 mph 1017.9mb 26f
11:00am 9 15 mph 1017.9mb 26f
10:50am 11 17 mph 1018.3mb 25f
10:40am 8 14 mph 1017.9mb 25f
10:30am 8 18 mph 1017.9mb 25f
10:20am 11 17 mph 1017.6mb 25f
10:10am 9 18 mph 1017.6mb 26f
10:00am 10 18 mph 1017.3mb 25f
9:50am 10 16 mph 1017.3mb 26f
9:40am 11 16 mph 1016.9mb 26f
9:30am 10 16 mph 1016.6mb 25f
9:20am 9 15 mph 1016.6mb 26f
9:10am 8 17 mph 1016.3mb 25f
9:00am 8 15 mph 1016.3mb 25f
8:50am 10 15 mph 1016.3mb 25f
8:40am 9 17 mph 1015.9mb 25f
8:30am 8 17 mph 1015.9mb 25f
8:20am 8 17 mph 1015.9mb 24f
8:10am 11 17 mph 1015.6mb 24f
8:00am 8 15 mph 1015.6mb 24f
7:50am 8 15 mph 1015.6mb 24f
7:40am 10 14 mph 1015.2mb 24f
7:30am 10 14 mph 1014.9mb 24f
7:20am 6 14 mph 1014.9mb 24f
7:10am 7 14 mph 1014.6mb 24f
7:00am 7 11 mph 1014.6mb 24f
6:50am 8 14 mph 1014.2mb 24f
6:40am 10 14 mph 1013.9mb 25f
6:30am 9 15 mph 1013.9mb 25f
6:20am 9 14 mph 1013.5mb 25f
6:10am 10 16 mph 1013.2mb 25f
6:00am 11 16 mph 1013.2mb 25f
5:50am 9 14 mph 1012.9mb 25f
5:40am 8 15 mph 1012.5mb 25f
5:30am 8 16 mph 1012.5mb 25f
5:20am 10 18 mph 1012.2mb 25f
5:10am 9 15 mph 1012.2mb 26f
5:00am 8 15 mph 1011.9mb 26f
4:50am 9 18 mph 1011.9mb 26f
4:40am 8 17 mph 1011.5mb 26f
4:30am 11 15 mph 1011.5mb 26f
4:20am 8 16 mph 1011.2mb 26f
4:10am 9 16 mph 1011.2mb 26f
4:00am 8 16 mph 1010.8mb 26f
3:50am 10 17 mph 1010.5mb 26f
3:40am 8 17 mph 1010.5mb 26f
3:30am 10 16 mph 1010.2mb 26f
3:20am 10 17 mph 1010.2mb 26f
3:10am 8 13 mph 1010.2mb 26f
3:00am 7 13 mph 1010.2mb 26f
2:50am 8 13 mph 1010.2mb 26f
2:40am 7 13 mph 1010.2mb 26f
2:30am 7 15 mph 1009.8mb 26f
2:20am 7 14 mph 1009.8mb 26f
2:10am 9 14 mph 1009.8mb 26f
2:00am 8 16 mph 1009.5mb 26f
1:50am 10 15 mph 1009.5mb 26f
1:40am 7 16 mph 1009.1mb 26f
1:30am 7 18 mph 1008.8mb 26f
1:20am 11 18 mph 1008.5mb 26f
1:10am 7 15 mph 1008.5mb 26f
1:00am 8 17 mph 1008.1mb 26f
12:50am 10 15 mph 1008.1mb 25f
12:40am 11 18 mph 1007.8mb 25f
12:30am 10 16 mph 1007.8mb 26f
12:20am 9 18 mph 1007.8mb 26f
12:10am 11 17 mph 1007.5mb 26f
12:00am 9 15 mph 1007.1mb 26f
Mon 11/24 11:50pm 9 17 mph 1007.1mb 26f
11:40pm 9 18 mph 1007.1mb 26f
11:30pm 10 17 mph 1006.8mb 26f
11:20pm 11 22 mph 1006.4mb 26f
11:10pm 15 21 mph 1006.1mb 26f
11:00pm 11 21 mph 1006.1mb 26f
10:50pm 10 18 mph 1005.8mb 26f
10:40pm 10 17 mph 1005.8mb 26f
10:30pm 9 22 mph 1005.4mb 26f
10:20pm 13 26 mph 1005.4mb 27f
10:10pm 9 22 mph 1005.1mb 27f
10:00pm 13 20 mph 1004.7mb 27f
9:50pm 13 20 mph 1004.7mb 27f
9:40pm 13 21 mph 1004.4mb 27f
9:30pm 10 22 mph 1004.1mb 27f
9:20pm 16 25 mph 1004.1mb 27f
9:10pm 15 21 mph 1003.7mb 27f
9:00pm 13 18 mph 1003.7mb 27f
8:50pm 11 21 mph 1003.4mb 27f
8:40pm 14 25 mph 1003.4mb 27f
8:30pm 15 22 mph 1003mb 27f
8:20pm 13 22 mph 1002.7mb 28f
8:10pm 11 26 mph 1002.7mb 28f
8:00pm 14 22 mph 1002.4mb 28f
7:50pm 13 25 mph 1002mb 28f
7:43pm 14 25 mph 1001.7mb 28f
7:40pm 11 23 mph 1001.7mb 28f
7:30pm 14 28 mph 1001.4mb 28f
7:20pm 15 28 mph 1001.4mb 28f
7:10pm 16 29 mph 1001mb 28f
7:00pm 17 26 mph 1000.7mb 28f
6:50pm 18 31 mph 1000.3mb 29f
6:42pm 20
mph
1000.3mb 29f
6:40pm 16 29 mph 1000mb 29f
6:31pm 21 29 mph 999.7mb 29f
6:30pm 21 26 mph 999.7mb 29f
6:20pm 18 28 mph 999.7mb 29f
6:10pm 17 28 mph 999.3mb 29f
6:00pm 17 29 mph 999mb 29f
5:50pm 14 26 mph 999mb 30f
5:42pm 15
mph
998.6mb 30f
5:40pm 15 25 mph 998.3mb 30f
5:30pm 22 30 mph 998mb 30f
5:20pm 16 26 mph 997.3mb 30f
5:10pm 15 23 mph 997.3mb 30f
5:00pm 18 25 mph 997mb 31f
4:50pm 17 29 mph 996.6mb 31f
4:41pm 16
mph
996.3mb 31f
4:40pm 16 29 mph 996.3mb 31f
4:30pm 13 29 mph 995.9mb 31f
4:20pm 16 28 mph 995.3mb 31f
4:10pm 16 28 mph 994.9mb 31f
4:00pm 20 29 mph 994.6mb 32f
3:58pm 17 29 mph 994.6mb 32f
3:50pm 15 23 mph 994.2mb 32f
3:40pm 17 29 mph 993.9mb 32f
3:30pm 15 26 mph 993.9mb 33f
3:20pm 13 20 mph 993.6mb 33f
3:10pm 16 28 mph 992.9mb 33f
3:00pm 17 25 mph 992.6mb 33f
2:50pm 16 29 mph 992.2mb 34f
2:48pm 17 29 mph 992.2mb 34f
2:40pm 13 21 mph 991.9mb 35f
2:30pm 16 23 mph 991.5mb 35f
2:20pm 14 26 mph 991.2mb 35f
2:10pm 13 22 mph 990.9mb 35f
2:00pm 10 22 mph 990.5mb 35f
1:50pm 10 20 mph 990.2mb 35f
1:40pm 14 23 mph 989.8mb 36f
1:30pm 11 22 mph 989.5mb 37f
1:20pm 16 24 mph 989.2mb 37f
1:10pm 15 24 mph 988.8mb 38f
1:00pm 10 25 mph 988.5mb 38f
12:50pm 13 25 mph 988.5mb 38f
12:40pm 11 23 mph 988.1mb 39f
12:30pm 13 23 mph 988.1mb 39f
12:20pm 11 18 mph 987.5mb 39f
12:10pm 11 23 mph 987.5mb 39f
12:00pm 13 22 mph 987.5mb 40f
11:50am 11 23 mph 987.1mb 40f
11:40am 10 21 mph 986.8mb 40f
11:30am 11 20 mph 986.8mb 41f
11:20am 11 25 mph 986.8mb 41f
11:10am 15 20 mph 986.1mb 41f
11:00am 11 20 mph 986.1mb 41f
10:50am 10 17 mph 985.8mb 42f
10:40am 11 18 mph 986.1mb 42f
10:30am 11 20 mph 985.8mb 42f
10:20am 8 20 mph 985.8mb 42f
10:10am 9 17 mph 985.8mb 42f
10:00am 10 18 mph 985.8mb 43f
8:40am 6 11 mph 985.1mb 46f
8:30am 6 11 mph 984.8mb 46f
8:20am 7 14 mph 984.8mb 46f
8:10am 9 15 mph 984.8mb 46f
8:00am 9 14 mph 984.8mb 46f
7:50am 9 15 mph 985.1mb 46f
7:40am 8 14 mph 984.8mb 46f
7:30am 8 13 mph 984.8mb 46f
7:20am 8 13 mph 984.8mb 46f
7:10am 6 10 mph 984.8mb 46f
7:00am 6 10 mph 984.8mb 46f
6:50am 3 6 mph 984.8mb 46f
6:40am 3 6 mph 984.8mb 46f
6:30am 2 3 mph 984.8mb 46f
6:20am 3 6 mph 984.4mb 46f
6:10am 3 8 mph 984.4mb 46f
6:00am 7 8 mph 984.1mb 46f
5:50am 7 11 mph 984.1mb 46f
5:40am 7 9 mph 983.7mb 46f
5:30am 6 8 mph 983.7mb 46f
5:20am 6 8 mph 983.7mb 46f
5:10am 6 9 mph 983.7mb 46f
5:00am 5 9 mph 984.1mb 46f
4:50am 6 9 mph 984.1mb 46f
4:40am 5 8 mph 984.1mb 45f
4:30am 5 9 mph 984.1mb 45f
4:20am 6 9 mph 984.1mb 45f
4:10am 6 8 mph 984.1mb 45f
4:00am 5 8 mph 984.1mb 45f
3:50am 6 8 mph 984.4mb 45f
3:40am 3 7 mph 984.4mb 45f
3:30am 5 7 mph 984.4mb 45f
3:20am 3 6 mph 984.1mb 44f
3:10am 5 7 mph 984.4mb 44f
3:00am 3 8 mph 984.4mb 44f
2:50am 5 8 mph 984.4mb 44f
2:40am 3 6 mph 984.4mb 44f
2:30am 3 5 mph 984.4mb 44f
2:20am 3 5 mph 984.4mb 44f
2:10am 3 6 mph 984.4mb 44f
2:00am 3 7 mph 984.8mb 45f
1:50am 3 7 mph 984.8mb 44f
1:40am 5 7 mph 984.8mb 45f
1:30am 5 8 mph 984.8mb 45f
1:20am 5 7 mph 984.8mb 45f
1:10am 5 7 mph 985.1mb 45f
1:00am 5 7 mph 985.1mb 45f
12:50am 5 7 mph 985.1mb 45f
12:40am 5 6 mph 985.4mb 45f
12:30am 3 5 mph 985.4mb 45f
12:20am 3 6 mph 985.8mb 45f
12:10am 5 6 mph 986.1mb 45f
12:00am 3 5 mph 986.1mb 46f
Sun 11/23 11:50pm 2 3 mph 986.5mb 46f
11:40pm 2 3 mph 986.5mb 46f
11:30pm 2 3 mph 986.8mb 46f
11:20pm 2
mph
987.1mb 45f
11:10pm  -  2 mph 987.5mb 45f
11:00pm 2
mph
987.8mb 45f
10:50pm  -  mph 987.8mb 45f
10:40pm  -  2 mph 988.1mb 46f
10:30pm  -  2 mph 988.8mb 46f
10:20pm  -  5 mph 988.8mb 46f
10:10pm  -  3 mph 989.2mb 46f
10:00pm  -  3 mph 989.5mb 46f
9:50pm  -  5 mph 989.8mb 46f
9:40pm 1 2 mph 990.2mb 45f
9:30pm  -  2 mph 990.9mb 45f
9:20pm  -  2 mph 991.2mb 45f
9:10pm  -  2 mph 991.5mb 45f
9:00pm  -  2 mph 991.9mb 45f